Location: Newark
(44.6028°N, 124.0883°W)
Time: 18:10:50
(UTC+00:00)

Vanguard 1 Rocket - Pass Details

Date: 27 October 2019
Orbit: 651 x 4225 km, 34.3° (Epoch: 16 November)

Event Time Altitude Azimuth Distance (km) Brightness Sun altitude
Rises 00:53:22 0° 280° (W) 7,589 13.3 2.7°
Reaches altitude 10° 01:00:17 10° 267° (W) 6,995 13.7 1.5°
Maximum altitude 01:15:37 21° 228° (SW) 6,474 12.8 -1.1°
Drops below altitude 10° 01:31:25 10° 189° (S) 7,080 12.2 -3.8°
Sets 01:38:48 0° 175° (S) 7,680 12.2 -5.1°
